SCP
-0 -0 -0 -0 0 0 0 0 0 0 0 0 0 0 0 0 0 0 0 0 0 0 0 0 0 0 0 0 0 0 0 0 0 0 0 0 0 0 0 0 0 0 0
-0 0 0 0 0 0 0 0 0 0 0 0 0 0 0 0 0 0 0 0 0 0 0 0 0 0 0 0 0 0 0 0 0 0 0 0 0 0 0 0 0 0 0
-0 0 0 0 0 0 0 0 0 0 0 0 0 0 0 0 0 0 0 0 0 0 0 0 0 0 0 0 0 0 0 0 0 0 0 0 0 0 0 0 0 0 0
-0 0 0 0 0 0 0 0 0 0 0 0 0 0 0 0 0 0 0 0 0 0 0 0 0 0 0 0 0 0 0 0 0 0 0 0 0 0 0 0 0 0 0
0 0 0 0 0 0 0 0 0 0 0 0 -0 0 0 0 0 0 0 0 0 0 0 0 0 0 0 0 0 0 0 0 0 0 0 0 0 0 0 0 0 0 0
0 0 0 0 0 -0 0 0 0 0 0 0 0 0 0 0 0 0 0 0 0 0 0 0 0 0 0 0 0 0 0 0 0 0 0 0 0 0 0 0 0 0 0
0 0 0 0 0 0 0 0 -0 0 0 0 0 0 0 0 0 0 0 0 0 0 0 0 0 0 0 0 0 0 0 0 0 0 0 0 0 0 0 0 0 0 0
0 0 0 0 0 0 0 0 0 0 0 0 0 0 0 0 0 0 0 0 0 0 0 0 0 0 0 0 0 0 0 0 0 0 0 0 0 0 0 0 0 0 0
0 0 0 0 0 0 0 0 0 0 0 0 0 0 0 0 0 0 0 0 0 0 0 0 0 0 0 0 0 0 0 0 0 0 0 0 0 0 0 0 0 0 0
0 0 0 0 0 0 0 0 0 0 0 0 0 0 0 0 0 0 0 0 0 0 0 0 0 0 0 0 0 0 0 0 0 0 0 0 0 0 0 0 0 0 0
0 0 0 0 0 0 0 0 0 0 0 0 0 0 0 0 0 0 0 0 0 0 0 0 0 0 0 0 0 0 0 0 0 0 0 0 0 0 0 0 0 0 0
0 0 0 0 0 0 0 0 0 0 0 0 0 0 0 0 0 0 0 0 0 0 0 0 0 0 0 0 0 0 0 0 0 0 0 0 0 0 0 0 0 0 0
0 0 0 0 0 0 0 0 0 0 0 0 0 0 0 0 0 0 0 0 0 0 0 0 0 0 0 0 0 0 0 0 0 0 0 0 0 0 0 0 0 0 0
0 0 0 0 0 0 0 0 0 0 0 0 0 0 0 0 0 0 0 0 0 0 0 0 0 0 0 0 0 0 0 0 0 0 0 0 0 0 0 0 0 0 0
0 0 0 0 0 0 0 0 0 0 0 0 0 0 0 0 0 0 0 0 0 0 0 0 0 0 0 0 0 0 0 0 0 0 0 0 0 0 0 0 0 0 0
0 0 0 0 0 0 0 0 0 0 0 0 0 0 0 0 0 0 0 0 0 0 0 0 0 0 0 0 0 0 0 0 0 0 0 0 0 0 0 0 0 0 0
0 0 0 0 0 0 0 0 0 0 0 0 0 0 0 0 0 0 0 0 0 0 0 0 0 0 0 0 0 0 0 0 0 0 0 0 0 0 0 0 0 0 0
0 0 0 0 0 0 0 0 0 0 0 0 0 0 0 0 0 0 0 0 0 0 0 0 0 0 0 0 0 0 0 0 0 0 0 0 0 0 0 0 0 0 0
0 0 0 0 0 0 0 0 0 0 0 0 0 0 0 0 0 0 0 0 0 0 0 0 0 0 0 0 0 0 0 0 0 0 0 0 0 0 0 0 0 0 0
0 0 0 0 0 0 0 0 0 0 0 0 0 0 0 0 0 0 0 0 0 0 0 0 0 0 0 0 0 0 0 0 0 0 0 0 0 0 0 0 0 0 0
0 0 0 0 0 0 0 0 0 0 0 0 0 0 0 0 0 0 0 0 0 0 0 0 0 0 0 0 0 0 0 0 0 0 0 0 0 0 0 0 0 0 0
0 0 0 0 0 0 0 0 0 0 0 0 0 0 0 0 0 0 0 0 0 0 0 0 0 0 0 0 0 0 0 0 0 0 0 0 0 0 0 0 0 0 0
0 0 0 0 0 0 0 0 0 0 0 0 0 0 0 0 0 0 0 0 0 0 0 0 0 0 0 0 0 0 0 0 0 0 0 0 0 0 0 0 0 0 0
0 0 0 0 0 0 0 0 0 0 0 0 0 0 0 0 0 0 0 0 0 0 0 0 0 0 0 0 0 0 0 0 0 0 0 0 0 0 0 0 0 0 0
0 0 0 0 0 0 0 0 0 0 0 0 0 0 0 0 0 0 0 0 0 0 0 0 0 0 0 0 0 0 0 0 0 0 0 0 0 0 0 0 0 0 0
0 0 0 0 0 0 0 0 0 0 0 0 0 0 0 0 0 0 0 0 0 0 0 0 0 0 0 0 0 0 0 0 0 0 0 0 0 0 0 0 0 0 0
Wind_Speed
15 14 13 13 13 12 10 11 11 11 11 12 13 14 15 16 16 16 17 16 18 16 15 16 16 13 10 8 8 7 7 7 6 5 5 7 12 10 8 7 6 7 6
13 12 12 12 13 13 12 12 12 12 11 12 12 13 14 15 16 17 18 17 18 19 18 17 18 12 14 11 10 10 9 9 7 7 6 8 9 10 9 8 6 6 6
11 12 12 13 14 14 13 13 12 12 12 11 12 14 15 15 16 17 18 18 19 19 19 20 19 17 17 13 13 12 10 8 7 7 7 6 5 8 9 8 8 8 7
11 11 11 12 13 13 13 13 13 12 12 12 12 14 15 15 15 16 16 17 18 18 18 19 19 20 20 18 14 14 12 11 10 9 7 6 6 7 8 8 8 8 7
11 11 11 11 12 12 12 13 13 12 11 11 12 13 14 14 13 15 16 16 17 18 18 19 19 21 21 18 15 16 15 13 11 11 9 8 9 8 9 8 7 6 5
11 11 11 11 11 11 12 13 13 13 12 11 11 12 14 12 17 23 20 16 17 19 19 19 18 19 22 27 27 24 23 20 17 14 12 12 13 10 9 8 7 5 4
10 10 10 11 11 12 13 13 14 14 14 13 12 12 14 16 23 25 26 18 18 18 20 18 16 15 19 20 26 28 26 27 24 18 17 15 13 14 13 12 9 6 4
10 10 10 11 13 14 14 14 14 14 14 14 14 14 14 15 21 25 24 21 20 20 20 19 19 18 19 22 20 20 20 20 22 15 11 10 9 11 12 10 8 5 3
12 12 11 11 13 15 15 16 15 15 15 15 14 15 15 16 19 23 25 15 17 20 19 19 20 20 24 29 21 21 20 18 21 20 13 11 14 16 14 9 9 7 5
13 13 13 12 12 14 16 17 16 15 16 16 16 15 16 16 19 22 24 14 16 16 15 17 19 23 24 30 22 20 21 18 17 17 16 15 14 15 18 11 9 8 5
13 13 14 14 14 16 17 16 16 16 17 17 18 17 16 17 20 23 25 16 15 15 14 14 14 26 29 30 27 18 19 16 16 17 15 14 12 11 12 10 9 8 7
14 15 16 15 15 15 16 17 17 16 18 18 17 18 14 13 16 20 26 28 23 17 14 12 13 24 29 30 26 23 25 20 13 13 14 13 13 11 10 9 9 8 6
16 17 17 18 17 17 17 18 17 15 15 15 15 16 14 11 13 21 24 27 29 20 13 17 19 24 26 25 29 29 22 16 14 14 14 12 11 11 10 9 8 6 5
19 21 19 19 19 17 15 15 15 14 15 15 15 15 14 12 11 10 10 12 18 19 16 15 24 26 23 20 18 22 16 14 13 13 12 11 11 11 10 9 8 7 5
21 21 20 19 19 17 16 15 17 17 17 18 16 15 15 15 14 16 11 10 10 11 10 10 12 13 15 14 14 14 14 13 13 11 11 12 11 10 9 8 7 7 5
20 19 16 15 15 15 16 17 24 27 31 35 35 31 22 27 28 26 23 23 23 21 13 12 13 14 14 14 14 13 13 13 12 11 11 12 11 11 10 9 8 7 6
19 19 16 16 16 16 16 17 17 19 26 31 33 34 34 33 33 30 26 24 25 23 14 12 13 13 13 13 12 12 12 13 12 12 12 12 11 11 10 9 8 7 6
19 19 18 15 15 15 16 16 16 16 16 15 19 27 30 29 28 27 25 21 16 16 12 12 12 12 11 12 12 12 11 12 11 11 11 11 11 11 10 9 8 8 6
18 15 14 14 15 15 16 16 15 17 16 15 14 16 20 22 22 22 19 13 11 11 11 12 11 10 10 10 11 11 11 11 11 11 11 11 10 10 9 8 7 8 6
15 19 19 15 15 15 15 15 14 14 14 13 13 13 11 10 9 9 10 10 9 9 9 10 9 9 10 9 9 10 10 10 11 10 10 10 9 8 8 8 7 6 5
14 15 19 16 14 14 14 14 13 12 12 12 12 13 16 9 8 8 7 7 7 6 8 10 11 12 10 9 9 10 11 10 10 10 10 9 8 7 6 6 6 5 4
13 13 13 13 13 12 12 11 10 10 11 12 9 9 11 7 4 2 3 5 7 7 9 10 10 9 10 10 10 11 11 11 10 10 10 9 8 7 6 6 5 5 5
12 13 12 12 11 13 11 9 8 7 6 6 6 5 5 4 5 6 7 7 8 8 8 8 10 9 9 8 8 9 10 10 10 11 11 9 8 7 6 6 6 5 5
11 12 11 11 10 10 10 10 9 9 8 8 8 7 7 7 7 8 7 7 8 8 8 8 9 12 14 10 8 7 8 9 10 9 11 10 8 7 6 5 5 6 6
10 10 10 9 9 9 9 9 9 9 9 8 8 8 7 8 8 8 8 8 9 9 10 10 9 11 14 14 11 9 12 13 11 8 8 7 8 7 6 6 5 5 6
10 10 9 9 9 9 9 9 9 10 9 8 8 8 8 8 8 8 8 8 8 9 9 8 10 12 12 11 12 12 12 12 11 10 7 6 6 6 6 5 7 7 7
Wind_Direction
8 4 4 4 359 351 335 315 297 279 261 245 234 226 222 219 217 218 221 216 213 214 212 212 211 201 196 190 185 182 184 185 171 153 162 163 178 190 196 215 233 237 230
360 359 1 1 0 357 349 336 320 300 278 257 244 235 229 224 220 220 222 221 214 214 212 211 212 201 204 195 191 190 185 185 179 164 166 172 188 196 198 210 222 236 240
354 354 357 358 356 353 348 342 332 315 295 272 252 243 236 230 226 224 225 225 221 219 215 211 210 201 204 198 195 192 186 180 181 166 162 166 180 190 198 207 219 226 228
348 349 352 352 348 344 340 338 335 325 308 287 264 251 243 235 231 228 227 229 227 225 222 216 212 206 205 198 195 193 182 179 180 177 169 172 176 176 192 197 201 210 211
341 341 343 340 339 335 335 334 332 327 315 299 279 261 250 242 234 230 228 229 229 228 226 222 218 212 208 201 197 191 183 182 181 187 188 183 186 177 195 188 195 194 214
329 327 327 329 331 332 332 329 327 325 320 310 291 272 259 247 240 233 229 228 229 230 229 226 222 215 210 207 207 199 193 186 183 186 193 198 197 189 176 174 176 184 205
313 315 319 323 325 326 324 323 323 321 318 312 302 286 270 260 252 244 235 229 230 231 231 227 221 218 209 208 209 207 207 208 198 191 193 197 189 184 174 176 182 184 177
298 302 309 318 319 320 319 316 315 313 309 306 302 294 282 270 260 252 243 235 234 233 231 229 226 220 211 206 202 202 204 208 206 202 205 196 185 170 170 167 167 183 224
292 296 304 311 312 313 311 309 309 306 301 298 294 290 282 276 264 255 247 240 238 235 231 229 227 225 216 208 202 202 200 203 205 196 198 181 168 162 158 151 159 171 207
293 295 297 300 300 300 300 301 300 297 293 292 287 283 278 274 265 255 246 240 241 237 229 226 226 223 218 209 206 203 201 196 185 183 185 180 172 171 173 173 173 182 188
296 292 291 292 293 292 292 291 291 290 289 286 282 278 272 267 264 255 245 235 239 238 231 223 221 222 219 214 209 209 208 188 184 178 177 177 177 177 180 180 185 193 195
300 294 292 291 290 288 286 285 284 283 282 280 277 276 269 261 253 251 245 239 237 238 235 223 215 214 215 213 212 208 205 189 184 182 178 178 174 170 170 173 180 193 206
302 295 292 290 285 282 280 280 280 276 271 272 272 272 272 264 255 251 247 244 241 239 237 223 208 207 209 213 214 206 197 189 185 184 180 175 166 158 155 157 165 180 204
298 295 293 291 287 283 278 274 271 269 268 269 269 269 271 266 258 248 243 243 244 244 242 221 205 204 204 206 209 207 195 189 186 184 174 159 148 148 153 154 160 168 190
296 294 293 289 287 285 279 271 271 263 262 266 269 269 271 267 261 251 239 236 232 231 222 195 189 192 199 203 201 195 185 179 176 172 161 149 147 149 152 155 157 163 183
295 294 292 290 287 283 282 280 273 270 271 268 266 264 264 262 264 262 252 242 239 233 217 195 192 192 195 197 194 184 175 172 167 160 156 152 151 155 154 153 157 170 187
291 291 288 285 283 281 280 281 283 281 276 275 273 271 266 263 262 257 249 241 239 233 220 201 197 194 193 189 179 171 169 164 160 159 156 153 152 154 154 156 162 171 185
290 287 284 281 279 278 276 276 277 280 283 279 278 277 275 269 264 259 246 233 232 228 214 197 196 193 188 178 168 165 162 159 158 156 152 150 151 152 153 156 162 171 178
291 286 283 281 278 276 274 273 273 274 275 278 279 279 275 272 272 264 246 223 218 220 207 188 187 184 173 163 158 158 158 158 155 149 145 144 145 146 148 152 157 167 178
293 290 289 285 281 278 275 272 271 271 273 274 274 276 276 271 266 260 235 212 208 213 189 171 162 145 138 140 144 148 149 148 146 139 136 136 139 144 148 154 161 170 185
298 296 294 290 285 281 278 273 268 266 268 270 272 274 275 272 267 262 239 200 189 181 156 142 129 126 128 134 139 144 145 143 140 135 133 135 139 143 148 155 163 177 194
303 302 302 302 300 297 295 290 279 269 269 273 279 290 300 298 298 331 57 78 87 99 116 122 124 129 137 142 145 146 146 144 141 136 134 137 142 146 150 157 168 184 202
311 311 313 316 319 324 327 331 331 327 324 330 337 351 8 29 50 66 73 79 89 97 106 115 119 119 120 126 137 144 145 145 142 141 140 143 148 153 158 167 178 193 214
320 322 326 332 338 344 349 354 358 2 8 12 17 25 31 42 53 61 66 72 81 86 91 99 110 122 123 119 115 114 116 121 125 134 140 144 148 153 160 173 191 207 226
331 333 337 342 347 351 355 0 5 9 14 19 24 30 37 45 53 58 63 69 78 85 90 95 104 113 116 113 110 109 117 118 118 122 130 137 147 156 167 184 201 218 232
343 344 345 347 351 356 360 3 7 10 15 20 27 34 41 47 53 58 62 68 76 79 79 81 92 100 104 102 110 116 122 130 133 136 137 145 157 170 179 200 216 228 242